Time,TemperatureF,DewpointF,PressureIn,WindDirection,WindDirectionDegrees,WindSpeedMPH,WindSpeedGustMPH,Humidity,HourlyPrecipIn,Conditions,Clouds,dailyrainin,SolarRadiationWatts/m^2,SoftwareType,DateUTC
2013-04-07 00:12:00,52.0,51.0,-100.00,East,96,4.0,6.0,97,0.00,,,0.00,0.000000,,2013-04-07 07:12:00,
2013-04-07 00:22:00,52.0,51.0,-100.00,East,96,4.0,6.0,97,0.00,,,0.00,0.000000,,2013-04-07 07:22:00,
2013-04-07 00:32:00,52.0,51.0,-100.00,East,96,4.0,6.0,97,0.00,,,0.00,0.000000,,2013-04-07 07:32:00,
2013-04-07 00:42:00,52.0,51.0,-100.00,East,96,4.0,6.0,97,0.00,,,0.00,0.000000,,2013-04-07 07:42:00,
2013-04-07 00:51:00,52.0,49.0,-100.00,East,84,4.0,5.0,90,0.00,,,0.00,0.000000,,2013-04-07 07:51:00,
2013-04-07 01:22:00,52.0,49.0,-100.00,East,84,4.0,5.0,90,0.00,,,0.00,0.000000,,2013-04-07 08:22:00,
2013-04-07 01:32:00,52.0,49.0,-100.00,East,84,4.0,5.0,90,0.00,,,0.00,0.000000,,2013-04-07 08:32:00,
2013-04-07 01:42:00,52.0,49.0,-100.00,East,84,4.0,5.0,90,0.00,,,0.00,0.000000,,2013-04-07 08:42:00,
2013-04-07 01:51:00,52.0,49.0,-100.00,NE,44,4.0,6.0,90,0.00,,,0.00,0.000000,,2013-04-07 08:51:00,
2013-04-07 02:22:00,52.0,49.0,-100.00,NE,44,4.0,6.0,90,0.00,,,0.00,0.000000,,2013-04-07 09:22:00,
2013-04-07 02:33:00,52.0,49.0,-100.00,NE,44,4.0,6.0,90,0.00,,,0.00,0.000000,,2013-04-07 09:33:00,
2013-04-07 02:43:00,52.0,49.0,-100.00,NE,44,4.0,6.0,90,0.00,,,0.00,0.000000,,2013-04-07 09:43:00,
2013-04-07 02:51:00,52.0,50.0,-100.00,NE,51,3.0,4.0,93,0.00,,,0.00,0.000000,,2013-04-07 09:51:00,
2013-04-07 03:13:00,52.0,50.0,-100.00,NE,51,3.0,4.0,93,0.00,,,0.00,0.000000,,2013-04-07 10:13:00,
2013-04-07 03:22:00,52.0,50.0,-100.00,NE,51,3.0,4.0,93,0.00,,,0.00,0.000000,,2013-04-07 10:22:00,
2013-04-07 03:33:00,52.0,50.0,-100.00,NE,51,3.0,4.0,93,0.00,,,0.00,0.000000,,2013-04-07 10:33:00,
2013-04-07 03:42:00,52.0,50.0,-100.00,NE,51,3.0,4.0,93,0.00,,,0.00,0.000000,,2013-04-07 10:42:00,
2013-04-07 03:51:00,50.0,49.0,-100.00,East,89,4.0,5.0,96,0.00,,,0.00,0.000000,,2013-04-07 10:51:00,
2013-04-07 04:22:00,50.0,49.0,-100.00,East,89,4.0,5.0,96,0.00,,,0.00,0.000000,,2013-04-07 11:22:00,
2013-04-07 04:32:00,50.0,49.0,-100.00,East,89,4.0,5.0,96,0.00,,,0.00,0.000000,,2013-04-07 11:32:00,
2013-04-07 04:42:00,50.0,49.0,-100.00,East,89,4.0,5.0,96,0.00,,,0.00,0.000000,,2013-04-07 11:42:00,
2013-04-07 04:51:00,50.0,50.0,-100.00,NE,40,3.0,6.0,99,0.00,,,0.00,0.000000,,2013-04-07 11:51:00,
2013-04-07 05:22:00,50.0,50.0,-100.00,NE,40,3.0,6.0,99,0.00,,,0.00,0.000000,,2013-04-07 12:22:00,
2013-04-07 05:33:00,50.0,50.0,-100.00,NE,40,3.0,6.0,99,0.00,,,0.00,0.000000,,2013-04-07 12:33:00,
2013-04-07 05:42:00,50.0,50.0,-100.00,NE,40,3.0,6.0,99,0.00,,,0.00,0.000000,,2013-04-07 12:42:00,
2013-04-07 05:51:00,48.0,47.0,-100.00,ENE,74,5.0,5.0,98,0.00,,,0.00,0.000000,,2013-04-07 12:51:00,
2013-04-07 06:13:00,48.0,47.0,-100.00,ENE,74,5.0,5.0,98,0.00,,,0.00,0.000000,,2013-04-07 13:13:00,
2013-04-07 06:22:00,48.0,47.0,-100.00,ENE,74,5.0,5.0,98,0.00,,,0.00,0.000000,,2013-04-07 13:22:00,
2013-04-07 06:32:00,48.0,47.0,-100.00,ENE,74,5.0,5.0,98,0.00,,,0.00,0.000000,,2013-04-07 13:32:00,
2013-04-07 06:42:00,48.0,47.0,-100.00,ENE,74,5.0,5.0,98,0.00,,,0.00,0.000000,,2013-04-07 13:42:00,
2013-04-07 06:51:00,50.0,49.0,-100.00,NE,45,3.0,5.0,96,0.00,,,0.00,5.000000,,2013-04-07 13:51:00,
2013-04-07 07:12:00,50.0,49.0,-100.00,NE,45,3.0,5.0,96,0.00,,,0.00,5.000000,,2013-04-07 14:12:00,
2013-04-07 07:22:00,50.0,49.0,-100.00,NE,45,3.0,5.0,96,0.00,,,0.00,5.000000,,2013-04-07 14:22:00,
2013-04-07 07:32:00,50.0,49.0,-100.00,NE,45,3.0,5.0,96,0.00,,,0.00,5.000000,,2013-04-07 14:32:00,
2013-04-07 07:42:00,50.0,49.0,-100.00,NE,45,3.0,5.0,96,0.00,,,0.00,5.000000,,2013-04-07 14:42:00,
2013-04-07 07:51:00,53.0,51.0,-100.00,ENE,73,2.0,5.0,93,0.00,,,0.00,63.000000,,2013-04-07 14:51:00,
2013-04-07 08:12:00,53.0,51.0,-100.00,ENE,73,2.0,5.0,93,0.00,,,0.00,63.000000,,2013-04-07 15:12:00,
2013-04-07 08:22:00,53.0,51.0,-100.00,ENE,73,2.0,5.0,93,0.00,,,0.00,63.000000,,2013-04-07 15:22:00,
2013-04-07 08:33:00,53.0,51.0,-100.00,ENE,73,2.0,5.0,93,0.00,,,0.00,63.000000,,2013-04-07 15:33:00,
2013-04-07 08:43:00,53.0,51.0,-100.00,ENE,73,2.0,5.0,93,0.00,,,0.00,63.000000,,2013-04-07 15:43:00,
2013-04-07 08:51:00,58.0,53.0,-100.00,West,277,2.0,6.0,84,0.00,,,0.00,221.000000,,2013-04-07 15:51:00,
2013-04-07 09:23:00,58.0,53.0,-100.00,West,277,2.0,6.0,84,0.00,,,0.00,221.000000,,2013-04-07 16:23:00,
2013-04-07 09:33:00,58.0,53.0,-100.00,West,277,2.0,6.0,84,0.00,,,0.00,221.000000,,2013-04-07 16:33:00,
2013-04-07 09:42:00,58.0,53.0,-100.00,West,277,2.0,6.0,84,0.00,,,0.00,221.000000,,2013-04-07 16:42:00,
2013-04-07 09:51:00,60.0,52.0,-100.00,WNW,282,7.0,10.0,76,0.00,,,0.00,250.000000,,2013-04-07 16:51:00,
2013-04-07 10:13:00,60.0,52.0,-100.00,WNW,282,7.0,10.0,76,0.00,,,0.00,250.000000,,2013-04-07 17:13:00,
2013-04-07 10:22:00,60.0,52.0,-100.00,WNW,282,7.0,10.0,76,0.00,,,0.00,250.000000,,2013-04-07 17:22:00,
2013-04-07 10:32:00,60.0,52.0,-100.00,WNW,282,7.0,10.0,76,0.00,,,0.00,250.000000,,2013-04-07 17:32:00,
2013-04-07 10:42:00,60.0,52.0,-100.00,WNW,282,7.0,10.0,76,0.00,,,0.00,250.000000,,2013-04-07 17:42:00,
2013-04-07 10:51:00,61.0,53.0,-100.00,WNW,293,6.0,11.0,74,0.00,,,0.00,256.000000,,2013-04-07 17:51:00,
2013-04-07 11:22:00,61.0,53.0,-100.00,WNW,293,6.0,11.0,74,0.00,,,0.00,256.000000,,2013-04-07 18:22:00,
2013-04-07 11:32:00,61.0,53.0,-100.00,WNW,293,6.0,11.0,74,0.00,,,0.00,256.000000,,2013-04-07 18:32:00,
2013-04-07 11:42:00,61.0,53.0,-100.00,WNW,293,6.0,11.0,74,0.00,,,0.00,256.000000,,2013-04-07 18:42:00,
2013-04-07 11:51:00,65.0,53.0,-100.00,West,267,7.0,13.0,64,0.00,,,0.00,483.000000,,2013-04-07 18:51:00,
2013-04-07 12:12:00,65.0,53.0,-100.00,West,267,7.0,13.0,64,0.00,,,0.00,483.000000,,2013-04-07 19:12:00,
2013-04-07 12:22:00,65.0,53.0,-100.00,West,267,7.0,13.0,64,0.00,,,0.00,483.000000,,2013-04-07 19:22:00,
2013-04-07 12:32:00,65.0,53.0,-100.00,West,267,7.0,13.0,64,0.00,,,0.00,483.000000,,2013-04-07 19:32:00,
2013-04-07 12:42:00,65.0,53.0,-100.00,West,267,7.0,13.0,64,0.00,,,0.00,483.000000,,2013-04-07 19:42:00,
2013-04-07 12:51:00,66.0,53.0,-100.00,SW,230,9.0,15.0,62,0.00,,,0.00,674.000000,,2013-04-07 19:51:00,
2013-04-07 13:13:00,66.0,53.0,-100.00,SW,230,9.0,15.0,62,0.00,,,0.00,674.000000,,2013-04-07 20:13:00,
2013-04-07 13:22:00,66.0,53.0,-100.00,SW,230,9.0,15.0,62,0.00,,,0.00,674.000000,,2013-04-07 20:22:00,
2013-04-07 13:32:00,66.0,53.0,-100.00,SW,230,9.0,15.0,62,0.00,,,0.00,674.000000,,2013-04-07 20:32:00,
2013-04-07 13:42:00,66.0,53.0,-100.00,SW,230,9.0,15.0,62,0.00,,,0.00,674.000000,,2013-04-07 20:42:00,
2013-04-07 13:51:00,70.0,53.0,-100.00,West,270,7.0,15.0,55,0.00,,,-99.99,767.000000,,2013-04-07 20:51:00,
2013-04-07 14:22:00,70.0,53.0,-100.00,West,270,7.0,15.0,55,0.00,,,-99.99,767.000000,,2013-04-07 21:22:00,
2013-04-07 14:33:00,70.0,53.0,-100.00,West,270,7.0,15.0,55,0.00,,,-99.99,767.000000,,2013-04-07 21:33:00,
2013-04-07 14:43:00,70.0,53.0,-100.00,West,270,7.0,15.0,55,0.00,,,-99.99,767.000000,,2013-04-07 21:43:00,
2013-04-07 14:51:00,68.0,53.0,-100.00,WSW,245,13.0,17.0,58,0.00,,,0.00,661.000000,,2013-04-07 21:51:00,
2013-04-07 15:13:00,68.0,53.0,-100.00,WSW,245,13.0,17.0,58,0.00,,,0.00,661.000000,,2013-04-07 22:13:00,
2013-04-07 15:23:00,68.0,53.0,-100.00,WSW,245,13.0,17.0,58,0.00,,,0.00,661.000000,,2013-04-07 22:23:00,
2013-04-07 15:33:00,68.0,53.0,-100.00,WSW,245,13.0,17.0,58,0.00,,,0.00,661.000000,,2013-04-07 22:33:00,
2013-04-07 15:42:00,68.0,53.0,-100.00,WSW,245,13.0,17.0,58,0.00,,,0.00,661.000000,,2013-04-07 22:42:00,
2013-04-07 15:51:00,67.0,53.0,-100.00,WSW,256,15.0,19.0,60,0.00,,,0.00,659.000000,,2013-04-07 22:51:00,
2013-04-07 16:22:00,67.0,53.0,-100.00,WSW,256,15.0,19.0,60,0.00,,,0.00,659.000000,,2013-04-07 23:22:00,
2013-04-07 16:32:00,67.0,53.0,-100.00,WSW,256,15.0,19.0,60,0.00,,,0.00,659.000000,,2013-04-07 23:32:00,
2013-04-07 16:42:00,67.0,53.0,-100.00,WSW,256,15.0,19.0,60,0.00,,,0.00,659.000000,,2013-04-07 23:42:00,
2013-04-07 16:51:00,68.0,52.0,-100.00,WSW,257,10.0,18.0,57,0.00,,,0.00,556.000000,,2013-04-07 23:51:00,
2013-04-07 17:12:00,68.0,52.0,-100.00,WSW,257,10.0,18.0,57,0.00,,,0.00,556.000000,,2013-04-08 00:12:00,
2013-04-07 17:22:00,68.0,52.0,-100.00,WSW,257,10.0,18.0,57,0.00,,,0.00,556.000000,,2013-04-08 00:22:00,
2013-04-07 17:32:00,68.0,52.0,-100.00,WSW,257,10.0,18.0,57,0.00,,,0.00,556.000000,,2013-04-08 00:32:00,
2013-04-07 17:42:00,68.0,52.0,-100.00,WSW,257,10.0,18.0,57,0.00,,,0.00,556.000000,,2013-04-08 00:42:00,
2013-04-07 17:51:00,65.0,52.0,-100.00,WSW,258,10.0,17.0,63,0.00,,,0.00,338.000000,,2013-04-08 00:51:00,
2013-04-07 18:12:00,65.0,52.0,-100.00,WSW,258,10.0,17.0,63,0.00,,,0.00,338.000000,,2013-04-08 01:12:00,
2013-04-07 18:22:00,65.0,52.0,-100.00,WSW,258,10.0,17.0,63,0.00,,,0.00,338.000000,,2013-04-08 01:22:00,
2013-04-07 18:32:00,65.0,52.0,-100.00,WSW,258,10.0,17.0,63,0.00,,,0.00,338.000000,,2013-04-08 01:32:00,
2013-04-07 18:42:00,65.0,52.0,-100.00,WSW,258,10.0,17.0,63,0.00,,,0.00,338.000000,,2013-04-08 01:42:00,
2013-04-07 18:51:00,62.0,52.0,-100.00,SSW,194,3.0,12.0,70,0.00,,,0.00,123.000000,,2013-04-08 01:51:00,
2013-04-07 19:22:00,62.0,52.0,-100.00,SSW,194,3.0,12.0,70,0.00,,,0.00,123.000000,,2013-04-08 02:22:00,
2013-04-07 19:33:00,62.0,52.0,-100.00,SSW,194,3.0,12.0,70,0.00,,,0.00,123.000000,,2013-04-08 02:33:00,
2013-04-07 19:45:00,62.0,52.0,-100.00,SSW,194,3.0,12.0,70,0.00,,,0.00,123.000000,,2013-04-08 02:45:00,
2013-04-07 19:51:00,58.0,52.0,-100.00,SW,230,7.0,9.0,79,0.00,,,0.00,8.000000,,2013-04-08 02:51:00,
2013-04-07 20:23:00,58.0,52.0,-100.00,SW,230,7.0,9.0,79,0.00,,,0.00,8.000000,,2013-04-08 03:23:00,
2013-04-07 20:33:00,58.0,52.0,-100.00,SW,230,7.0,9.0,79,0.00,,,0.00,8.000000,,2013-04-08 03:33:00,
2013-04-07 20:44:00,58.0,52.0,-100.00,SW,230,7.0,9.0,79,0.00,,,0.00,8.000000,,2013-04-08 03:44:00,
2013-04-07 20:51:00,55.0,53.0,-100.00,South,191,3.0,9.0,92,0.00,,,0.00,0.000000,,2013-04-08 03:51:00,
2013-04-07 21:12:00,55.0,53.0,-100.00,South,191,3.0,9.0,92,0.00,,,0.00,0.000000,,2013-04-08 04:12:00,
2013-04-07 21:23:00,55.0,53.0,-100.00,South,191,3.0,9.0,92,0.00,,,0.00,0.000000,,2013-04-08 04:23:00,
2013-04-07 21:33:00,55.0,53.0,-100.00,South,191,3.0,9.0,92,0.00,,,0.00,0.000000,,2013-04-08 04:33:00,
2013-04-07 21:43:00,55.0,53.0,-100.00,South,191,3.0,9.0,92,0.00,,,0.00,0.000000,,2013-04-08 04:43:00,
2013-04-07 21:51:00,54.0,53.0,-100.00,ESE,111,7.0,9.0,95,0.00,,,0.00,0.000000,,2013-04-08 04:51:00,
2013-04-07 22:32:00,54.0,53.0,-100.00,ESE,111,7.0,9.0,95,0.00,,,0.00,0.000000,,2013-04-08 05:32:00,
2013-04-07 22:42:00,54.0,53.0,-100.00,ESE,111,7.0,9.0,95,0.00,,,0.00,0.000000,,2013-04-08 05:42:00,
2013-04-07 22:51:00,54.0,52.0,-100.00,East,91,4.0,8.0,94,0.00,,,0.00,0.000000,,2013-04-08 05:51:00,
2013-04-07 23:22:00,54.0,52.0,-100.00,East,91,4.0,8.0,94,0.00,,,0.00,0.000000,,2013-04-08 06:22:00,
2013-04-07 23:32:00,54.0,52.0,-100.00,East,91,4.0,8.0,94,0.00,,,0.00,0.000000,,2013-04-08 06:32:00,
2013-04-07 23:42:00,54.0,52.0,-100.00,East,91,4.0,8.0,94,0.00,,,0.00,0.000000,,2013-04-08 06:42:00,
2013-04-07 23:51:00,53.0,51.0,-100.00,East,84,6.0,8.0,93,0.00,,,0.00,0.000000,,2013-04-08 06:51:00,